Date String (YYYY-MM-DD hh:mm:ss) UTC,Instrument flags,Ambient pressure (hPa),Sample flow (lpm),Bypass flow (lpm),Sample temperature (°C),Ambient temperature (°C),ASC tube jacket temperature (°C),LED temperature (°C),Box temperature (°C),Sample RH (%),Span deviation,Mass concentration (μg/m³),Mass concentration (μg/m³),Mass concentration (μg/m³)
DateTimeUTC,F1_M11,P_M11,Q1_M11,Q2_M11,T1_M11,T2_M11,T3_M11,T4_M11,T5_M11,U1_M11,ZSPAN_M11,X0_M11,X2_M11,X1_M11
2022-09-28 17:00:00,,0833.8,5.01,0.00,30.6,28.9,00.0,39.2,32.5,18.9,0000.0,0012.14,0004.75,0003.99
2022-09-28 17:01:00,,0833.8,5.00,0.00,30.6,27.6,00.0,39.2,32.3,19.1,0000.0,0012.13,0004.77,0003.98
2022-09-28 17:02:00,,0833.8,5.00,0.00,30.5,27.0,00.0,39.1,32.2,19.0,0000.0,0011.57,0004.81,0004.00
2022-09-28 17:03:00,,0833.7,5.00,0.00,30.5,27.2,00.0,39.1,32.1,19.0,0000.0,0011.76,0004.85,0004.00
2022-09-28 17:04:00,,0833.7,5.00,0.00,30.4,27.5,00.0,39.1,32.0,18.7,0000.0,0011.94,0004.88,0004.00
2022-09-28 17:05:00,,0833.7,5.01,0.00,30.3,27.8,00.0,39.0,32.0,18.8,0000.0,0011.54,0004.84,0003.98
2022-09-28 17:06:00,,0833.7,5.01,0.00,30.3,28.1,00.0,39.0,32.0,18.9,0000.0,0011.20,0004.83,0003.96
2022-09-28 17:07:00,,0833.6,4.99,0.00,30.3,28.3,00.0,39.0,32.0,18.8,0000.0,0011.14,0004.87,0003.95
2022-09-28 17:08:00,,0833.6,5.00,0.00,30.3,28.5,00.0,39.0,32.1,19.0,0000.0,0011.10,0004.88,0003.94
2022-09-28 17:09:00,,0833.7,5.01,0.00,30.3,28.6,00.0,39.0,32.1,19.0,0000.0,0011.25,0004.85,0003.92
2022-09-28 17:10:00,,0833.7,4.99,0.00,30.3,28.7,00.0,39.0,32.1,19.1,0000.0,0011.23,0004.86,0003.93
2022-09-28 17:11:00,,0833.7,5.01,0.00,30.3,28.9,00.0,39.0,32.1,19.1,0000.0,0011.60,0004.88,0003.92
2022-09-28 17:12:00,,0833.7,4.99,0.00,30.3,29.0,00.0,39.0,32.1,18.7,0000.0,0012.04,0004.88,0003.93
2022-09-28 17:13:00,,0833.7,5.01,0.00,30.3,29.0,00.0,39.0,32.2,18.9,0000.0,0011.70,0004.85,0003.92
2022-09-28 17:14:00,,0833.7,4.99,0.00,30.3,29.1,00.0,39.0,32.2,19.1,0000.0,0012.01,0004.88,0003.93
2022-09-28 17:15:00,,0833.7,5.01,0.00,30.4,29.1,00.0,39.0,32.2,19.1,0000.0,0012.67,0004.89,0003.95
2022-09-28 17:16:00,,0833.6,5.00,0.00,30.4,29.2,00.0,39.0,32.3,18.9,0000.0,0013.02,0004.94,0003.97
2022-09-28 17:17:00,,0833.6,4.99,0.00,30.4,29.2,00.0,39.0,32.3,18.9,0000.0,0013.32,0004.94,0003.99
2022-09-28 17:18:00,,0833.6,5.00,0.00,30.4,29.2,00.0,39.0,32.3,19.0,0000.0,0013.46,0004.95,0004.01
2022-09-28 17:19:00,,0833.6,5.01,0.00,30.4,29.3,00.0,39.1,32.3,18.8,0000.0,0013.17,0004.91,0004.02
2022-09-28 17:20:00,,0833.6,5.00,0.00,30.5,29.3,00.0,39.1,32.3,19.0,0000.0,0013.58,0004.98,0004.05
2022-09-28 17:21:00,,0833.6,5.00,0.00,30.5,29.3,00.0,39.1,32.3,19.0,0000.0,0014.25,0004.99,0004.05
2022-09-28 17:22:00,,0833.6,5.01,0.00,30.5,29.3,00.0,39.1,32.4,18.9,0000.0,0013.66,0004.94,0004.04
2022-09-28 17:23:00,,0833.6,4.99,0.00,30.5,29.3,00.0,39.1,32.4,19.1,0000.0,0013.29,0004.97,0004.03
2022-09-28 17:24:00,,0833.6,5.01,0.00,30.5,29.3,00.0,39.2,32.4,19.0,0000.0,0013.57,0004.97,0004.03
2022-09-28 17:25:00,,0833.6,4.99,0.00,30.5,29.3,00.0,39.2,32.4,19.3,0000.0,0013.04,0004.94,0004.05
2022-09-28 17:26:00,,0833.7,5.01,0.00,30.5,29.3,00.0,39.2,32.4,19.3,0000.0,0012.45,0004.95,0004.06
2022-09-28 17:27:00,,0833.6,4.98,0.00,30.6,29.3,00.0,39.2,32.4,19.4,0000.0,0011.65,0004.93,0004.05
2022-09-28 17:28:00,,0833.7,5.01,0.00,30.6,29.2,00.0,39.2,32.5,19.5,0000.0,0011.28,0004.95,0004.05
2022-09-28 17:29:00,,0833.6,5.00,0.00,30.6,27.9,00.0,39.2,32.3,19.7,0000.0,0011.94,0004.96,0004.06
2022-09-28 17:30:00,,0833.6,5.01,0.00,30.5,26.8,00.0,39.1,32.2,19.4,0000.0,0012.00,0005.06,0004.08
2022-09-28 17:31:00,,0833.6,5.00,0.00,30.4,26.8,00.0,39.1,32.1,19.4,0000.0,0012.61,0005.12,0004.10
2022-09-28 17:32:00,,0833.6,4.99,0.00,30.3,27.1,00.0,39.0,32.0,19.4,0000.0,0011.94,0005.12,0004.10
2022-09-28 17:33:00,,0833.6,5.00,0.00,30.3,27.4,00.0,39.0,31.9,19.5,0000.0,0011.98,0005.14,0004.11
2022-09-28 17:34:00,,0833.5,4.99,0.00,30.2,27.7,00.0,39.0,31.9,19.6,0000.0,0012.08,0005.13,0004.14
2022-09-28 17:35:00,,0833.5,4.99,0.00,30.2,28.0,00.0,39.0,31.9,19.8,0000.0,0011.82,0005.13,0004.15
2022-09-28 17:36:00,,0833.5,5.01,0.00,30.2,28.2,00.0,38.9,32.0,19.9,0000.0,0012.36,0005.16,0004.15
2022-09-28 17:37:00,,0833.5,4.99,0.00,30.2,28.4,00.0,38.9,32.0,20.0,0000.0,0013.16,0005.18,0004.15
2022-09-28 17:38:00,,0833.4,5.01,0.00,30.2,28.5,00.0,38.9,32.0,20.1,0000.0,0013.27,0005.20,0004.17
2022-09-28 17:39:00,,0833.4,5.01,0.00,30.2,28.6,00.0,38.9,32.0,20.4,0000.0,0013.30,0005.19,0004.18
2022-09-28 17:40:00,,0833.4,4.99,0.00,30.2,28.7,00.0,38.9,32.0,20.4,0000.0,0012.64,0005.15,0004.19
2022-09-28 17:41:00,,0833.4,5.01,0.00,30.2,28.8,00.0,38.9,32.1,20.7,0000.0,0012.75,0005.09,0004.19
2022-09-28 17:42:00,,0833.4,4.99,0.00,30.2,28.9,00.0,38.9,32.1,20.5,0000.0,0013.05,0005.04,0004.18
2022-09-28 17:43:00,,0833.5,5.01,0.00,30.3,28.9,00.0,38.9,32.1,20.7,0000.0,0013.21,0005.01,0004.19
2022-09-28 17:44:00,,0833.5,5.00,0.00,30.3,29.0,00.0,38.9,32.1,20.9,0000.0,0013.97,0005.03,0004.20
2022-09-28 17:45:00,,0833.4,5.00,0.00,30.3,29.1,00.0,38.9,32.1,20.9,0000.0,0014.30,0005.09,0004.21
2022-09-28 17:46:00,,0833.4,5.00,0.00,30.3,29.1,00.0,39.0,32.2,20.8,0000.0,0014.41,0005.14,0004.22
2022-09-28 17:47:00,,0833.3,4.99,0.00,30.3,29.2,00.0,39.0,32.2,20.0,0000.0,0014.01,0005.12,0004.23
2022-09-28 17:48:00,,0833.3,5.01,0.00,30.4,29.2,00.0,39.0,32.2,20.4,0000.0,0012.97,0005.07,0004.22
2022-09-28 17:49:00,,0833.4,4.99,0.00,30.4,29.2,00.0,39.0,32.3,20.4,0000.0,0013.60,0005.10,0004.22
2022-09-28 17:50:00,,0833.4,5.00,0.00,30.4,29.2,00.0,39.0,32.3,20.4,0000.0,0014.33,0005.12,0004.22
2022-09-28 17:51:00,,0833.5,5.00,0.00,30.4,29.2,00.0,39.0,32.3,20.4,0000.0,0014.79,0005.18,0004.22
2022-09-28 17:52:00,,0833.4,5.01,0.00,30.4,29.3,00.0,39.0,32.3,20.4,0000.0,0014.81,0005.22,0004.22
2022-09-28 17:53:00,,0833.4,4.99,0.00,30.5,29.3,00.0,39.1,32.3,20.5,0000.0,0014.56,0005.22,0004.22
2022-09-28 17:54:00,,0833.5,5.00,0.00,30.5,29.4,00.0,39.1,32.4,20.6,0000.0,0013.79,0005.26,0004.23
2022-09-28 17:55:00,,0833.4,5.01,0.00,30.5,29.4,00.0,39.1,32.4,20.4,0000.0,0013.28,0005.30,0004.24
2022-09-28 17:56:00,,0833.4,5.00,0.00,30.5,29.4,00.0,39.1,32.4,20.5,0000.0,0012.89,0005.28,0004.24
2022-09-28 17:57:00,,0833.4,5.01,0.00,30.5,28.3,00.0,39.1,32.3,20.4,0000.0,0013.21,0005.34,0004.24
2022-09-28 17:58:00,,0833.4,5.00,0.00,30.5,27.0,00.0,39.1,32.2,20.3,0000.0,0013.60,0005.36,0004.23
2022-09-28 17:59:00,,0833.4,5.00,0.00,30.4,26.8,00.0,39.0,32.1,20.4,0000.0,0013.93,0005.38,0004.23
